Location: Malcolm X Square
(37.7810°N, 122.4297°W)
Time: 23:41:47
(UTC+00:00)

Cosmos 1939 Rocket - Pass Details

Date: 13 April 2024
Orbit: 515 x 559 km, 97.4° (Epoch: 21 May)

Event Time Altitude Azimuth Distance (km) Brightness Sun altitude
Rises 12:31:26 0° 18° (NNE) 2,639 6.9 -13.1°
Reaches altitude 10° 12:33:35 10° 24° (NNE) 1,747 6.1 -12.7°
Maximum altitude 12:37:14 48° 99° (E) 682 3.7 -12.0°
Drops below altitude 10° 12:40:52 10° 175° (S) 1,742 5.2 -11.3°
Sets 12:43:01 0° 181° (S) 2,630 6.1 -10.9°
